This is the latest recevied weather packets stored in our database for station/object RA1AMO-10. If no packets are shown the sender has not sent any weather packets the latest 10 day(s).
| Time | Temp. | Humidity | Pressure | Rain* | Wind** | Luminosity | Snow |
|---|---|---|---|---|---|---|---|
| 1777770170 | 8.89° C | 63% | 1005.6 hPa | - | - | - | - |
| 1777769269 | 9.44° C | 63% | 1005.7 hPa | - | - | - | - |
| 1777768369 | 9.44° C | 63% | 1005.8 hPa | - | - | - | - |
| 1777767469 | 8.89° C | 63% | 1005.9 hPa | - | - | - | - |
| 1777766569 | 9.44° C | 63% | 1006.1 hPa | - | - | - | - |
| 1777765669 | 9.44° C | 61% | 1006 hPa | - | - | - | - |
| 1777764769 | 9.44° C | 61% | 1006 hPa | - | - | - | - |
| 1777763868 | 10° C | 60% | 1006.1 hPa | - | - | - | - |
| 1777762968 | 10° C | 58% | 1006 hPa | - | - | - | - |
| 1777762068 | 10.56° C | 56% | 1006.1 hPa | - | - | - | - |
| 1777761168 | 10.56° C | 56% | 1006.2 hPa | - | - | - | - |
| 1777760268 | 11.11° C | 56% | 1006.3 hPa | - | - | - | - |
| 1777759368 | 11.11° C | 55% | 1006.3 hPa | - | - | - | - |
| 1777758467 | 11.11° C | 56% | 1006.3 hPa | - | - | - | - |
| 1777757567 | 11.11° C | 55% | 1006.4 hPa | - | - | - | - |
| 1777756667 | 11.11° C | 55% | 1006.4 hPa | - | - | - | - |
| 1777755767 | 11.67° C | 52% | 1006.6 hPa | - | - | - | - |
| 1777754867 | 11.67° C | 49% | 1006.5 hPa | - | - | - | - |
| 1777753967 | 11.67° C | 50% | 1006.7 hPa | - | - | - | - |
| 1777753066 | 11.11° C | 53% | 1006.5 hPa | - | - | - | - |
| 1777752166 | 11.11° C | 53% | 1006.6 hPa | - | - | - | - |
| 1777751266 | 11.11° C | 52% | 1006.9 hPa | - | - | - | - |
| 1777750366 | 11.11° C | 50% | 1006.7 hPa | - | - | - | - |
| 1777749466 | 11.11° C | 50% | 1006.8 hPa | - | - | - | - |
| 1777748565 | 11.67° C | 46% | 1006.8 hPa | - | - | - | - |
* Rain since midnight (hover to see other rain measurements)
** Current wind speed in m/s (hover to see current wind gust speed)